Regional Weather Roundup
Issued by NWS

Home | Current Version | Previous Version | Graphics & Text | Print | Product List | Glossary On
Versions: 1 2 3 4 5 6 7 8 9 10 11 12 13 14 15 16 17 18 19 20 21 22 23 24 25 26 27 28 29 30 31 32 33 34 35 36 37 38 39 40 41 42 43 44 45 46 47 48 49 50
000
ASUS43 KDTX 140810
RWRMI
MICHIGAN HOURLY REGIONAL WEATHER ROUNDUP
NATIONAL WEATHER SERVICE DETROIT/PONTIAC MI
400 AM EDT MON JUL 14 2014

NOTE: "FAIR" INDICATES FEW OR NO CLOUDS BELOW 12,000 FEET WITH NO
SIGNIFICANT WEATHER AND/OR OBSTRUCTION TO VISIBILITY.

MIZ047>049-052>055-059>063-066>070-074>076-081>083-140900-
SOUTHEAST LOWER MICHIGAN

CITY           SKY/WX    TMP DP  RH WIND       PRES   REMARKS
ADRIAN         CLOUDY    66  62  87 CALM      29.87F
ALMA           CLOUDY    63  61  94 CALM      29.86S
ANN ARBOR      LGT RAIN  65  62  90 SW3       29.88F FOG
BAD AXE        MOCLDY    60  55  82 CALM      29.88S
CARO           CLOUDY    62  60  96 CALM      29.87S
DETROIT CITY   CLOUDY    72  61  68 NE5       29.86S
DETROIT        LGT RAIN  69  61  75 W9        29.87S
FLINT          MOCLDY    67  62  84 SE3       29.87S
GROSSE ILE     CLOUDY    70  64  83 CALM      29.85S
HILLSDALE      MOCLDY    65  65  99 CALM      29.88F
HOWELL         PTCLDY    66  62  85 S3        29.87S

CITY           SKY/WX    TMP DP  RH WIND       PRES   REMARKS
JACKSON        LGT RAIN  65  64  97 S5        29.87S
LAMBERTVILLE   PTCLDY    64  63  94 NW3       29.87S
LANSING        MOCLDY    66  62  87 S3        29.86F
LAPEER         CLOUDY    62  57  85 SE3       29.88F
MASON          MOCLDY    65  62  89 CALM      29.87S
MONROE         MOCLDY    66  63  88 NW5       29.85S
MT. CLEMENS    CLOUDY    65  61  87 NE2       29.86S
PONTIAC        CLOUDY    68  60  75 W6        29.87S
PORT HOPE        N/A     60  53  77 CALM      29.86F
PORT HURON     CLEAR     59  59 100 CALM      29.88S FOG
TRI CITIES     CLOUDY    63  59  87 E6        29.86F
TROY           LGT RAIN  67  62  83 NE5       29.89R
SAGINAW HB     CLOUDY    63  61  94 SE5       29.86S
$$
MIZ043>046-050>051-056>058-064>065-071>073-077>080-140900-
SOUTHWEST LOWER MICHIGAN

CITY           SKY/WX    TMP DP  RH WIND       PRES   REMARKS
BATTLE CREEK   MOCLDY    66  64  93 CALM      29.87F
BENTON HARBOR  CLEAR     63  63 100 CALM      29.88R FOG
BIG RAPIDS     CLEAR     56  56 100 CALM      29.87S FOG
COLDWATER      CLOUDY    67  65  92 CALM      29.87F
FREMONT        FOG       58  58 100 CALM      29.86S VSB 1/4
HOLLAND        MOCLDY    64  60  87 CALM      29.88R
GRAND RAPIDS   MOCLDY    65  62  90 CALM      29.87S
IONIA          FAIR      62  61  95 CALM      29.86S
KALAMAZOO      PTCLDY    66  63  90 CALM      29.87S
LUDINGTON      FOG       54  53  97 CALM      29.86F VSB 1/2
MARSHALL       PTCLDY    64  63  96 CALM      29.86F
MOUNT PLEASANT CLOUDY    60  59  96 CALM      29.86S
MUSKEGON       CLEAR     59  56  89 CALM      29.87S
SOUTH HAVEN    CLEAR     62  62 100 CALM      29.88R FOG
$$
MIZ016>042-140900-
NORTHERN LOWER MICHIGAN

CITY           SKY/WX    TMP DP  RH WIND       PRES   REMARKS
ALPENA         CLEAR     50  49  96 S5        29.86F
BEAVER ISLAND  CLOUDY    60  53  79 S6        29.81F
BELLAIRE       CLEAR     48  47  95 CALM      29.84F FOG
CADILLAC       CLEAR     46  46 100 CALM      29.87S
CHARLEVOIX     CLOUDY    61  52  73 S7        29.85F
FRANKFORT      MOCLDY    56  53  91 CALM      29.84F FOG
GAYLORD        CLEAR     53  47  79 SW3       29.86F
GRAYLING       PTCLDY    45  45 100 CALM      29.87S
HARBOR SPRINGS MOCLDY    53  51  94 CALM      29.83S
HOUGHTON LAKE  CLEAR     47  46  97 E3        29.87F
MANISTEE       CLOUDY    54  52  94 E5        29.86F VSB 1/4
OSCODA         CLEAR     50  47  90 CALM      29.86F
PELLSTON       CLOUDY    51  49  92 CALM      29.84S
ROGERS CITY    CLEAR     55  52  92 S5        29.85F
TRAVERSE CITY  MOCLDY    58  53  84 S3        29.83F
$$
MIZ007>008-015-140900-
EASTERN UPPER MICHIGAN

CITY           SKY/WX    TMP DP  RH WIND       PRES   REMARKS
KINROSS        PTCLDY    54  48  82 S6        29.82F
MACKINAC ISLAN PTCLDY    57  53  85 S9        29.82F
NEWBERRY       CLOUDY    55  51  87 SW9       29.80F
S. S. MARIE    CLOUDY    51  48  89 E5        29.82S
MUNISING         N/A     58  52  80 CALM      29.79S
$$
MIZ004>006-011>014-085-140900-
CENTRAL UPPER MICHIGAN

CITY           SKY/WX    TMP DP  RH WIND       PRES   REMARKS
MANISTIQUE     CLOUDY    55  54  95 CALM      29.79F
ESCANABA       MOCLDY    55  48  76 CALM      29.80S
MENOMINEE      PTCLDY    57  48  72 N7        29.81S
SAWYER-GWINN   CLOUDY    56  51  84 CALM      29.80F
$$
MIZ001>003-009>011-084-140900-
WESTERN UPPER MICHIGAN

CITY           SKY/WX    TMP DP  RH WIND       PRES   REMARKS
IRON MOUNTAIN  MOCLDY    54  49  83 CALM      29.81F
HOUGHTON       PTCLDY    53  48  83 W9        29.79R
COPPER HARBOR    N/A     56  48  74 VRB5      29.78R
IRONWOOD       PTCLDY    50  45  81 W6        29.81S
$$

ABBREVIATIONS USED IN REMARKS
   TC - TEMPERATURE IN CELSIUS
  WCI - WIND CHILL INDEX
   HX - HEAT INDEX
  VSB - VISIBILITY




USA.gov is the U.S. government's official web portal to all federal, state and local government web resources and services.